Location: Arroyo Retuerta
(40.5469°N, 4.3534°W)
Time: 12:14:45
(UTC+00:00)

NOSS 2-2 (E) - Pass Details

Date: 01 June 2020
Orbit: 479 x 1727 km, 63.3° (Epoch: 24 June)

Event Time Altitude Azimuth Distance (km) Brightness Sun altitude
Rises 21:30:44 0° 222° (SW) 2,543 6.6 -16.5°
Reaches altitude 10° 21:32:51 10° 227° (SW) 1,648 5.7 -16.7°
Maximum altitude 21:36:20 58° 307° (NW) 577 3.7 -17.2°
Drops below altitude 10° 21:40:10 10° 28° (NNE) 1,806 6.3 -17.6°
Sets 21:42:35 0° 32° (NNE) 2,821 7.2 -17.9°
